CAPE
110 99 120 403 527 707 1116 1200 915 542 686 596 627 773 595 282 322 408 243 283 257 587 679 746 566 329 138 75 19 8 51 110 232 433 473 527 442 128 0 22 49 0 40
91 52 195 316 604 847 1156 1089 860 738 713 584 621 678 702 488 497 577 483 304 553 800 497 452 372 272 253 53 0 0 0 0 0 1 71 184 188 66 21 91 0 0 0
84 88 179 294 571 786 1090 1027 808 663 837 876 800 680 595 481 370 262 369 386 403 661 457 235 140 211 162 112 168 181 185 1 0 0 0 0 0 0 0 0 125 221 54
75 124 77 183 504 645 827 713 742 752 755 786 804 688 521 334 307 189 169 196 263 429 294 149 101 77 15 0 19 26 0 0 0 0 30 0 0 0 0 0 82 112 150
100 187 74 126 317 523 637 638 527 487 543 566 580 643 602 311 213 173 95 30 7 121 182 70 11 0 0 0 0 0 0 0 0 0 0 0 0 0 0 0 0 20 60
127 257 68 64 207 361 346 312 289 229 200 273 389 327 400 262 196 183 125 0 0 3 142 61 0 0 0 0 0 0 0 0 0 5 0 0 0 0 0 0 0 0 5
254 285 101 55 116 223 269 272 295 307 306 243 239 313 292 228 162 266 184 13 0 0 0 0 0 0 0 0 0 0 0 0 0 1 1 1 21 0 0 0 0 0 0
304 414 172 133 93 126 110 86 150 254 304 291 236 232 242 185 132 142 194 29 0 0 0 0 0 0 0 0 0 0 0 0 0 4 0 186 83 0 0 0 3 0 0
388 450 355 191 123 98 42 21 45 73 55 11 10 1 7 16 15 0 6 4 0 0 0 0 0 0 0 0 0 0 0 0 0 5 0 130 8 0 0 0 2 128 49
953 615 583 476 280 144 75 8 4 0 0 0 0 0 0 0 0 0 0 0 0 0 0 0 0 0 0 0 0 0 0 0 0 0 0 48 0 0 0 0 23 32 117
716 907 884 724 692 630 385 69 0 0 0 0 16 0 115 268 90 38 0 0 0 0 0 0 0 0 0 0 0 0 0 0 0 0 0 0 0 0 0 0 25 84 137
553 644 782 753 857 757 489 290 424 237 414 348 212 96 18 0 2 0 0 0 0 0 0 0 0 0 0 0 0 0 0 0 0 0 0 0 0 0 0 0 0 0 0
252 408 749 601 793 504 248 211 92 88 83 110 87 128 107 7 29 1 0 0 23 0 0 0 0 0 0 0 0 0 0 0 0 0 0 0 0 0 0 0 0 0 0
125 278 418 540 482 618 420 147 107 26 21 29 67 107 70 42 14 0 6 5 0 8 4 2 9 20 83 82 55 64 53 43 0 0 0 0 0 0 0 0 0 0 0
0 17 137 208 440 411 424 87 212 440 389 274 64 54 170 415 301 108 146 47 62 142 100 85 35 28 27 33 88 136 130 173 148 127 57 12 7 0 4 11 17 50 128
75 174 320 298 361 495 696 733 508 227 117 26 0 0 0 24 222 146 181 165 129 120 408 286 352 340 142 117 94 156 202 193 163 218 95 76 44 81 77 86 107 136 131
287 257 362 86 146 160 43 31 4 1 1 0 0 0 0 0 0 2 9 34 23 42 35 68 106 171 191 265 283 364 425 403 406 563 522 511 340 160 158 174 177 178 167
129 0 0 0 1 0 0 0 0 0 0 0 0 0 0 0 0 0 0 0 0 0 0 0 0 0 3 34 16 22 57 119 239 402 552 592 526 138 95 0 0 14 27
0 1 1 1 2 1 0 0 0 0 0 0 0 0 0 0 0 0 0 0 0 0 0 0 0 0 0 0 0 0 0 0 0 11 9 343 54 1 0 0 0 0 0
0 0 0 1 1 0 0 0 0 0 0 0 0 0 0 0 0 0 0 0 0 0 0 0 0 0 0 0 0 0 0 0 0 10 11 0 2 0 0 0 0 0 0
0 0 0 0 0 0 0 0 0 0 0 0 0 0 0 0 0 0 0 0 0 0 0 0 0 0 0 0 0 0 0 0 0 0 0 0 0 0 0 0 0 0 0
0 0 0 0 0 0 0 0 0 0 0 0 0 0 0 0 0 0 0 0 0 0 0 0 0 0 0 0 0 0 0 0 0 0 0 0 0 0 0 0 0 0 0
0 0 0 0 0 0 0 0 0 0 0 0 0 0 0 0 0 0 0 0 0 0 0 0 0 0 0 0 0 0 0 0 0 0 0 0 0 0 0 0 0 0 0
0 0 0 0 0 0 0 0 0 0 0 0 0 0 0 0 0 0 0 0 0 0 0 0 0 0 0 0 0 0 0 0 0 0 0 0 0 0 0 0 0 0 0
0 0 0 0 0 0 0 0 0 0 0 0 0 0 0 0 0 0 0 0 0 0 0 0 0 0 0 0 0 0 0 0 0 0 0 0 0 0 0 0 0 0 0
0 0 0 0 0 0 0 0 0 0 0 0 0 0 0 0 0 0 0 0 0 0 0 0 0 0 0 0 0 0 0 0 0 0 0 0 0 0 0 0 0 0 0
CIN
-20 -128 -141 -68 -36 -16 -3 -5 -26 -42 -23 -33 -18 -3 -8 -21 -15 -7 -14 -8 -36 -3 -0 -2 -1 -10 -57 -61 -36 -35 -90 -63 -33 -11 -3 -3 -1 -47 -0 -116 -84 -0 -92
-71 -90 -123 -78 -30 -3 -1 -3 -14 -18 -15 -20 -11 -7 -2 -8 -2 -1 -2 -9 -3 -1 -6 -9 -13 -21 -25 -72 -0 -0 -0 -0 -0 -2 -85 -65 -64 -101 -166 -83 -0 -0 -0
-91 -106 -83 -78 -32 -4 -0 -3 -15 -21 -8 -4 -6 -9 -9 -3 -4 -25 -9 -4 -1 -0 -4 -24 -34 -23 -51 -77 -48 -49 -42 -6 -0 -0 -0 -0 -0 -0 -0 -0 -76 -32 -86
-84 -56 -98 -106 -39 -8 -2 -9 -13 -17 -17 -9 -2 -2 -7 -17 -13 -25 -30 -21 -36 -0 -10 -27 -38 -59 -25 -0 -61 -49 -0 -0 -0 -0 -42 -0 -0 -0 -0 -0 -122 -90 -56
-44 -14 -154 -124 -68 -19 -2 -6 -20 -29 -27 -22 -10 -1 -0 -21 -30 -30 -47 -79 -16 -24 -13 -40 -16 -0 -0 -0 -0 -0 -0 -0 -0 -0 -0 -0 -0 -0 -0 -0 -0 -95 -140
-68 -16 -176 -154 -66 -35 -25 -26 -34 -42 -46 -41 -29 -28 -9 -25 -69 -18 -39 -0 -0 -5 -29 -72 -0 -0 -0 -0 -0 -0 -0 -0 -0 -1 -0 -0 -13 -0 -0 -0 -8 -6 -310
-53 -44 -141 -173 -93 -47 -28 -24 -27 -30 -32 -40 -34 -21 -20 -17 -26 -16 -27 -42 -0 -0 -0 -0 -0 -0 -0 -0 -0 -0 -0 -0 -0 -0 -28 -39 -150 -0 -0 -0 -0 -0 -0
-67 -30 -96 -124 -122 -77 -73 -80 -51 -24 -16 -13 -20 -21 -22 -39 -56 -50 -35 -106 -0 -0 -0 -0 -0 -0 -0 -0 -0 -0 -0 -0 -0 -0 -0 -8 -131 -0 -0 -0 -148 -0 -0
-98 -48 -32 -72 -117 -110 -122 -115 -90 -73 -73 -12 -9 -0 -12 -12 -17 -0 -20 -14 -0 -0 -0 -0 -0 -0 -0 -0 -0 -0 -0 -0 -0 -31 -0 -52 -242 -0 -0 -0 -86 -143 -188
-48 -58 -37 -27 -43 -89 -129 -171 -140 -0 -0 -0 -0 -0 -0 -0 -0 -0 -0 -0 -0 -0 -0 -0 -0 -0 -0 -0 -0 -0 -0 -0 -0 -0 -0 -134 -0 -0 -0 -12 -233 -206 -145
-50 -25 -18 -18 -11 -13 -30 -77 -0 -0 -0 -0 -17 -0 -2 -15 -7 -1 -0 -0 -0 -0 -0 -0 -0 -0 -0 -0 -0 -0 -0 -0 -0 -0 -0 -0 -0 -0 -0 -0 -128 -144 -134
-55 -34 -18 -15 -7 -9 -31 -39 -13 -16 -1 -3 -4 -17 -0 -0 -0 -0 -0 -0 -0 -0 -0 -0 -0 -0 -0 -0 -0 -0 -0 -0 -0 -0 -0 -0 -0 -0 -0 -0 -0 -0 -0
-128 -64 -15 -23 -4 -18 -64 -62 -101 -102 -80 -37 -39 -20 -24 -36 -33 -1 -0 -0 -19 -0 -0 -0 -0 -0 -0 -0 -0 -0 -0 -0 -0 -0 -0 -0 -0 -0 -0 -0 -0 -0 -0
-171 -99 -41 -18 -27 -3 -18 -70 -93 -180 -174 -7 -96 -41 -51 -76 -96 -0 -0 -1 -0 -1 -1 -0 -0 -1 -4 -11 -17 -24 -33 -43 -0 -0 -0 -0 -0 -0 -0 -0 -0 -0 -0
-67 -250 -144 -104 -33 -27 -8 -122 -57 -11 -4 -11 -82 -69 -19 -2 -3 -22 -15 -47 -40 -16 -23 -17 -11 -2 -6 -26 -26 -26 -33 -21 -26 -30 -44 -43 -45 -0 -25 -45 -49 -144 -118
-177 -128 -60 -72 -53 -9 -5 -4 -5 -25 -59 -161 -0 -0 -0 -78 -4 -15 -8 -5 -10 -9 -2 -1 -4 -2 -17 -18 -28 -15 -8 -3 -4 -1 -18 -19 -66 -62 -70 -73 -65 -57 -56
-82 -117 -85 -238 -170 -135 -271 -268 -14 -2 -0 -0 -0 -0 -0 -0 -0 -3 -2 -24 -24 -23 -23 -15 -1 -1 -1 -1 -4 -4 -5 -1 -2 -0 -3 -3 -2 -23 -27 -26 -29 -33 -41
-229 -0 -0 -0 -0 -0 -0 -0 -0 -0 -0 -0 -0 -0 -0 -0 -0 -0 -0 -0 -0 -0 -0 -0 -0 -1 -16 -20 -37 -29 -12 -7 -4 -3 -7 -4 -21 -85 -111 -0 -0 -115 -68
-0 -0 -0 -0 -0 -0 -0 -0 -0 -0 -0 -0 -0 -0 -0 -0 -0 -0 -0 -0 -0 -0 -0 -0 -0 -0 -0 -0 -0 -0 -0 -0 -0 -1 -1 -13 -34 -29 -0 -0 -0 -0 -0
-0 -0 -0 -0 -0 -0 -0 -0 -0 -0 -0 -0 -0 -0 -0 -0 -0 -0 -0 -0 -0 -0 -0 -0 -0 -0 -0 -0 -0 -0 -0 -0 -0 -1 -3 -0 -4 -0 -0 -0 -0 -0 -0
-0 -0 -0 -0 -0 -0 -0 -0 -0 -0 -0 -0 -0 -0 -0 -0 -0 -0 -0 -0 -0 -0 -0 -0 -0 -0 -0 -0 -0 -0 -0 -0 -0 -0 -0 -0 -0 -0 -0 -0 -0 -0 -0
-0 -0 -0 -0 -0 -0 -0 -0 -0 -0 -0 -0 -0 -0 -0 -0 -0 -0 -0 -0 -0 -0 -0 -0 -0 -0 -0 -0 -0 -0 -0 -0 -0 -0 -0 -0 -0 -0 -0 -0 -0 -0 -0
-0 -0 -0 -0 -0 -0 -0 -0 -0 -0 -0 -0 -0 -0 -0 -0 -0 -0 -0 -0 -0 -0 -0 -0 -0 -0 -0 -0 -0 -0 -0 -0 -0 -0 -0 -0 -0 -0 -0 -0 -0 -0 -0
-0 -0 -0 -0 -0 -0 -0 -0 -0 -0 -0 -0 -0 -0 -0 -0 -0 -0 -0 -0 -0 -0 -0 -0 -0 -0 -0 -0 -0 -0 -0 -0 -0 -0 -0 -0 -0 -0 -0 -0 -0 -0 -0
-0 -0 -0 -0 -0 -0 -0 -0 -0 -0 -0 -0 -0 -0 -0 -0 -0 -0 -0 -0 -0 -0 -0 -0 -0 -0 -0 -0 -0 -0 -0 -0 -0 -0 -0 -0 -0 -0 -0 -0 -0 -0 -0
-0 -0 -0 -0 -0 -0 -0 -0 -0 -0 -0 -0 -0 -0 -0 -0 -0 -0 -0 -0 -0 -0 -0 -0 -0 -0 -0 -0 -0 -0 -0 -0 -0 -0 -0 -0 -0 -0 -0 -0 -0 -0 -0
Wind_Speed
23 25 25 26 26 25 19 21 26 28 27 25 24 25 25 24 24 25 27 22 9 5 3 6 10 6 9 10 8 9 10 11 10 10 13 14 14 11 8 8 11 14 15
25 26 27 27 27 26 26 24 27 28 28 27 25 24 24 22 22 23 23 26 25 22 21 20 4 10 6 8 11 12 12 12 14 15 16 16 12 10 9 10 14 17 17
26 27 28 27 27 27 28 27 28 29 28 27 25 24 22 22 21 21 20 19 23 24 25 26 27 28 6 8 11 12 12 14 15 19 21 5 10 10 10 12 15 16 16
25 27 28 28 28 28 28 28 28 28 28 27 26 25 24 25 24 21 20 21 21 22 25 26 27 26 18 14 12 12 11 10 8 18 18 8 12 13 13 14 14 14 14
24 23 26 27 28 28 27 27 27 27 28 27 26 26 25 25 25 25 24 23 23 15 24 26 24 22 17 16 14 11 9 10 15 15 10 11 12 14 14 14 14 14 14
25 20 24 25 27 27 27 26 25 27 27 27 26 25 25 25 24 24 24 23 22 22 20 21 22 21 21 19 16 11 10 13 14 17 12 12 13 14 14 14 14 14 14
25 25 24 24 25 26 25 25 25 25 25 25 25 25 24 23 23 24 24 23 22 20 18 18 18 18 18 17 13 12 12 14 14 12 13 14 13 14 13 13 14 14 14
25 27 26 26 25 24 24 24 24 24 24 24 23 23 22 23 22 22 23 23 22 21 18 17 16 16 16 16 14 14 15 16 17 14 16 14 14 14 14 13 12 11 11
23 22 25 25 25 24 24 23 22 22 22 22 22 22 21 21 21 21 22 22 21 21 20 19 18 17 15 14 15 16 17 18 19 19 18 14 14 16 15 13 13 11 12
8 17 21 22 23 23 23 22 21 21 20 20 20 20 19 20 20 20 20 20 19 18 18 17 16 14 13 13 13 14 18 20 14 18 19 13 15 16 16 14 13 11 10
9 13 18 20 20 21 20 20 20 20 20 19 19 17 15 17 17 17 17 16 16 16 15 14 14 13 12 13 11 8 7 7 19 20 20 14 16 17 17 15 13 12 11
12 15 14 14 16 18 17 18 18 18 17 17 17 16 15 14 11 13 15 15 14 13 12 12 11 11 12 15 6 6 13 21 25 24 22 15 18 19 18 16 15 14 13
10 10 12 11 15 15 13 15 15 15 15 15 14 14 15 13 14 13 13 12 12 11 9 9 8 7 10 23 24 23 26 25 23 24 23 19 22 24 23 21 19 17 16
7 7 8 9 8 9 10 12 12 12 12 12 14 15 14 11 14 16 15 16 12 11 18 9 14 17 17 14 16 19 20 22 23 26 27 20 19 21 22 22 22 21 19
4 6 7 7 7 7 8 9 11 14 14 16 16 17 19 19 18 19 19 18 19 20 19 18 18 18 22 21 17 18 23 23 21 20 22 20 18 19 20 21 22 24 25
6 5 7 7 7 7 12 10 11 14 13 15 16 18 18 18 18 19 20 21 21 22 25 26 27 28 28 29 27 25 26 28 28 29 28 30 23 19 19 21 22 24 26
8 8 9 8 9 8 9 10 12 12 13 15 16 18 19 19 19 20 20 20 22 24 24 25 26 27 27 27 29 28 28 27 28 28 31 31 32 26 25 23 24 26 29
8 10 10 9 9 9 9 10 11 12 13 15 16 17 19 20 20 19 20 21 23 23 24 25 26 26 27 29 29 29 30 30 30 30 29 31 29 31 31 29 34 34 33
9 10 9 9 9 9 10 10 12 12 13 15 17 18 19 21 21 19 21 23 24 24 25 26 26 26 26 27 28 27 25 24 25 27 27 27 28 30 32 35 36 35 37
9 8 9 9 9 9 10 11 13 12 14 14 17 18 19 20 20 20 21 23 23 24 24 26 26 25 25 28 30 25 25 24 22 24 26 28 29 32 33 36 37 37 41
8 8 9 8 8 7 9 10 13 13 12 13 15 17 18 19 20 21 21 23 22 23 24 26 26 26 26 30 28 31 23 18 22 27 27 27 32 33 34 37 36 38 38
8 8 8 8 8 9 10 13 12 12 13 13 14 16 18 19 21 21 21 21 22 22 24 25 26 26 25 28 30 26 25 21 27 25 25 26 34 33 36 37 37 38 40
11 9 8 8 8 9 9 10 11 11 10 11 13 16 18 19 20 20 20 21 21 22 23 25 26 26 26 27 27 27 25 25 31 23 24 31 32 37 37 37 39 40 37
11 10 9 8 8 7 7 9 9 11 11 12 13 14 16 17 18 18 19 20 21 21 23 24 25 25 26 27 26 27 25 26 27 29 27 31 38 38 40 40 41 37 40
10 9 9 8 9 9 10 9 9 11 9 10 11 12 13 15 17 18 19 20 20 21 22 24 25 26 26 27 27 28 28 28 28 32 36 39 37 39 41 41 38 41 44
10 9 9 8 8 8 9 9 9 8 8 9 9 10 12 14 16 18 18 19 20 21 22 23 24 26 27 27 28 29 30 32 33 35 37 40 43 42 42 38 41 44 42
Wind_Direction
80 92 93 111 110 92 42 50 80 96 107 120 125 114 114 119 118 113 112 143 196 203 304 347 17 355 17 25 20 21 26 30 23 21 33 38 34 20 348 308 236 25 30
86 95 104 109 116 113 83 64 81 91 96 107 119 115 116 125 125 123 125 114 127 141 143 141 335 27 14 21 29 30 30 31 40 51 58 48 24 360 341 335 20 47 49
92 98 107 115 122 116 103 79 83 92 96 99 103 111 121 125 131 133 137 149 134 127 116 116 114 101 56 22 27 28 22 35 46 74 97 20 356 343 326 351 15 42 43
93 101 103 111 111 117 108 95 89 92 97 97 97 94 104 104 112 130 141 145 146 138 122 110 101 91 53 36 26 17 5 359 218 171 174 330 14 22 15 16 18 32 32
94 88 94 103 108 105 93 87 87 89 91 95 97 99 92 99 88 96 104 125 128 175 132 101 86 70 48 40 29 3 328 244 202 205 314 287 6 31 33 42 53 40 15
95 76 90 95 101 108 101 89 84 90 95 98 101 101 99 103 104 99 84 79 73 74 68 72 79 72 71 61 37 346 258 226 229 212 328 344 326 19 30 34 28 19 3
95 97 96 94 100 105 102 103 99 98 100 102 104 105 107 112 108 97 92 83 76 68 59 63 65 68 68 54 350 303 268 258 258 323 328 333 6 20 27 27 18 11 6
99 110 113 110 110 109 109 108 107 101 101 102 107 111 113 111 112 113 109 103 97 80 64 61 62 65 67 50 342 277 274 271 268 319 312 11 17 11 15 20 26 27 19
102 95 111 115 117 119 120 119 115 111 107 102 101 106 113 114 111 109 106 103 109 109 111 117 114 119 135 171 211 247 260 264 265 269 331 1 6 1 7 10 10 12 6
23 75 93 103 113 114 120 130 129 125 121 116 109 109 114 109 105 107 102 92 104 114 120 122 125 127 137 156 171 196 240 251 206 262 335 3 358 356 357 0 0 3 1
49 72 94 105 104 111 102 107 111 118 124 119 112 134 160 138 103 97 41 59 103 122 134 137 145 153 166 186 166 127 78 62 339 334 334 359 352 347 345 347 349 350 351
96 104 93 85 99 108 95 104 120 108 127 113 117 119 138 125 326 209 61 79 96 108 130 134 142 163 182 207 30 50 3 322 312 319 326 343 340 338 338 337 336 334 333
96 90 97 83 108 109 78 103 110 79 83 75 88 150 32 137 54 104 67 84 82 83 102 71 78 75 7 312 306 316 312 319 326 323 323 334 328 325 326 327 327 326 324
86 79 74 83 35 3 45 104 18 59 64 76 22 7 32 87 28 8 8 360 42 39 349 37 4 349 344 351 343 336 332 329 328 322 320 330 331 330 327 325 323 322 321
46 52 78 41 36 40 61 50 14 350 349 352 357 352 334 328 339 335 340 340 335 333 336 342 340 337 327 329 339 335 328 327 329 330 328 329 327 327 327 323 320 319 317
318 357 352 19 35 48 338 360 2 354 14 359 357 347 349 348 345 339 337 331 330 329 320 317 316 314 316 316 318 323 322 319 319 318 320 319 324 322 322 321 320 319 318
317 330 342 346 353 0 355 350 353 2 6 3 360 353 347 345 344 339 340 336 332 329 331 329 327 324 325 325 322 323 324 324 323 323 321 320 319 321 319 317 319 319 319
319 317 325 340 342 343 345 344 349 353 356 0 1 360 352 348 344 343 344 341 338 338 338 336 334 331 329 325 324 324 323 321 321 322 323 322 325 325 329 333 325 321 321
314 317 323 328 330 335 339 341 339 347 354 355 353 351 346 343 340 346 344 341 341 341 340 337 338 338 337 335 332 332 333 333 331 330 330 336 333 333 329 326 324 322 321
311 319 325 329 330 330 333 334 332 338 348 350 348 347 337 343 342 345 347 345 346 347 347 345 344 345 345 340 336 342 340 339 345 345 345 341 343 338 335 332 327 324 321
313 316 319 327 335 342 335 332 326 334 354 357 358 349 346 346 347 346 348 348 351 354 351 350 348 347 348 344 345 338 349 358 355 344 342 345 342 340 337 334 333 330 328
302 309 315 321 323 324 326 325 330 337 345 355 355 352 349 348 346 349 349 351 352 353 353 351 349 348 353 350 347 350 354 1 351 358 358 354 346 345 340 337 336 333 330
289 300 307 312 319 322 328 335 337 348 356 354 350 346 347 349 351 352 354 356 357 357 356 354 352 352 352 356 1 359 354 350 346 357 357 351 348 342 340 339 335 334 334
287 298 303 309 315 324 325 328 331 328 335 347 346 350 352 353 355 358 358 360 1 2 358 356 356 357 357 355 359 1 1 353 350 344 348 346 342 341 339 336 335 336 333
281 288 297 305 311 315 318 323 328 330 345 348 351 357 359 0 359 359 2 3 3 1 360 358 359 0 2 359 358 355 354 351 349 342 337 337 340 340 338 337 338 335 332
272 281 289 298 309 316 320 323 329 335 343 349 352 355 356 358 1 2 4 3 0 359 358 359 0 1 2 1 358 355 351 347 345 342 339 337 336 338 339 341 337 334 334